Regional Weather Roundup
Issued by NWS Jackson, KY

Home | Current Version | Previous Version | Text Only | Print | Product List | Glossary On
Versions: 1 2 3 4 5 6 7 8 9 10 11 12 13 14 15 16 17 18 19 20 21 22 23 24 25 26 27 28 29 30 31 32 33 34 35 36 37 38 39 40 41 42 43 44 45 46 47 48 49 50
706
ASUS43 KJKL 261010
RWRJKL

EAST KENTUCKY HOURLY WEATHER ROUNDUP
NATIONAL WEATHER SERVICE JACKSON KY
600 AM EDT WED JUL 26 2017

NOTE: "FAIR" INDICATES FEW OR NO CLOUDS BELOW 12,000 FEET WITH
NO SIGNIFICANT WEATHER AND/OR OBSTRUCTIONS TO VISIBILITY.

* THESE REPORTS ARE NOT UNDER NWS QUALITY CONTROL AND MAY NOT
  REPORT WEATHER SUCH AS PRECIPITATION AND FOG.

KYZ079-080-083-085-087-088-110-112-115-119-120-261100
...EASTERN KENTUCKY...

CITY           SKY/WX    TMP DP  RH WIND       PRES   REMARKS
JACKSON        CLEAR     62  59  90 CALM      30.17R
LONDON         CLEAR     63  60  90 CALM      30.16R
SOMERSET*      CLEAR     64  64 100 CALM      30.16R
MONTICELLO*    PTCLDY    65  64  97 VRB3      30.16R
WILLIAMSBURG*  MOSUNNY   64  64 100 CALM      30.16R
MIDDLESBORO*   FOG       65  65 100 NW3       30.17R VSB 3/4
PIKE CO APT*   MOCLDY    61  61 100 CALM      30.16R
BIG SANDY APT* MOSUNNY   60  60 100 CALM      30.17R FOG
MOREHEAD APT*  SUNNY     61  57  88 CALM      30.19R
ASHLAND*       CLEAR     59  59 100 CALM      30.15R
$$

KYZ035-036-041-042-044-050-067-078-099-261100
...CENTRAL KENTUCKY...

CITY           SKY/WX    TMP DP  RH WIND       PRES   REMARKS
MT STERLING*   CLEAR     59  59 100 CALM      30.19R
FLEMING/MASON* CLEAR     58  57  97 CALM      30.19R
DANVILLE*      CLEAR     61  61 100 CALM      30.17R
LEXINGTON      CLEAR     63  58  83 NE5       30.17R
FRANKFORT      CLEAR     63  59  87 E5        30.14S
LOUISVILLE     MOCLDY    70  62  76 E5        30.13F
LEBANON*         N/A     64  63  94 NE3       30.15R
GLASGOW*       CLEAR     70  69  96 CALM      30.13R
BOWLING GREEN  CLEAR     72  69  90 CALM      30.11S
$$

KYZ091>093-OHZ055-061-077-WVZ005-015-034-035-042-261100
...SOUTHERN OHIO/WEST VIRGINIA...

CITY           SKY/WX    TMP DP  RH WIND       PRES   REMARKS
COVINGTON      CLEAR     62  60  93 SE5       30.15F
COLUMBUS       PTCLDY    60  59  96 N3        30.18S
DAYTON         PTCLDY    59  56  89 E5        30.18F
WILMINGTON     CLEAR     54  54 100 NE5       30.17S FOG
HUNTINGTON     CLEAR     59  57  93 CALM      30.16R
CHARLESTON     CLEAR     58  56  93 CALM      30.15S
PINEVILLE*     PTCLDY    60  58  96 MISG      30.23S
BECKLEY        MOCLDY    63  57  81 SE10      30.22R
BLUEFIELD      PTCLDY    62  57  83 VRB5      30.24R
LOGAN CO APT*  CLOUDY    63  61  94 CALM      30.17R
$$

VAZ002-007-008-TNZ017-027-036-066-071-261100
...SOUTHWEST VIRGINIA/EAST TENNESSEE...

CITY           SKY/WX    TMP DP  RH WIND       PRES   REMARKS
WISE*          PTCLDY    63  63 100 CALM      30.22S
JONESVILLE*      N/A     63  63 100 CALM      30.19R FOG
ABINGDON*      CLEAR     69  61  75 E9        30.19R
BRISTOL        CLEAR     66  64  93 CALM      30.17R
MORRISTOWN*    SUNNY     68  66  94 CALM      30.15R
KNOXVILLE      CLEAR     68  65  90 NE5       30.12R
LAFOLLETTE*    SUNNY     64  63  94 CALM      30.19R FOG
OAK RIDGE      CLEAR     68  66  93 CALM      30.15R
CROSSVILLE     CLEAR     66  65  96 CALM      30.18R
NASHVILLE      CLEAR     76  73  91 CALM      30.11R
$$

...KEY TO REMARKS...
VSB - VISIBILITY IN MILES
WCI - WIND CHILL INDEX
HX  - HEAT INDEX

$$




USA.gov is the U.S. government's official web portal to all federal, state and local government web resources and services.